Year,Month,Day,Hour,Minute,Value (Times are PST for temperature in C)
2011,07,23,00,00,11.90
2011,07,23,00,01,11.90
2011,07,23,00,02,11.90
2011,07,23,00,03,11.90
2011,07,23,00,04,11.90
2011,07,23,00,05,11.90
2011,07,23,00,06,11.90
2011,07,23,00,07,11.90
2011,07,23,00,08,11.90
2011,07,23,00,09,11.90
2011,07,23,00,10,11.90
2011,07,23,00,11,11.90
2011,07,23,00,12,11.90
2011,07,23,00,13,11.90
2011,07,23,00,14,11.90
2011,07,23,00,15,12.00
2011,07,23,00,16,12.00
2011,07,23,00,17,12.00
2011,07,23,00,18,12.00
2011,07,23,00,19,12.10
2011,07,23,00,20,12.10
2011,07,23,00,21,12.10
2011,07,23,00,22,12.10
2011,07,23,00,23,12.10
2011,07,23,00,24,12.20
2011,07,23,00,25,12.20
2011,07,23,00,26,12.20
2011,07,23,00,27,12.20
2011,07,23,00,28,12.20
2011,07,23,00,29,12.20
2011,07,23,00,30,12.20
2011,07,23,00,31,12.20
2011,07,23,00,32,12.20
2011,07,23,00,33,12.20
2011,07,23,00,34,12.20
2011,07,23,00,35,12.20
2011,07,23,00,36,12.20
2011,07,23,00,37,12.20
2011,07,23,00,38,12.20
2011,07,23,00,39,12.20
2011,07,23,00,40,12.20
2011,07,23,00,41,12.20
2011,07,23,00,42,12.20
2011,07,23,00,43,12.20
2011,07,23,00,44,12.20
2011,07,23,00,45,12.20
2011,07,23,00,46,12.20
2011,07,23,00,47,12.20
2011,07,23,00,48,12.20
2011,07,23,00,49,12.20
2011,07,23,00,50,12.20
2011,07,23,00,51,12.20
2011,07,23,00,52,12.10
2011,07,23,00,53,12.10
2011,07,23,00,54,12.10
2011,07,23,00,55,12.10
2011,07,23,00,56,12.10
2011,07,23,00,57,12.00
2011,07,23,00,58,12.00
2011,07,23,00,59,11.90
2011,07,23,01,00,11.90
2011,07,23,01,01,11.90
2011,07,23,01,02,11.90
2011,07,23,01,03,11.90
2011,07,23,01,04,11.80
2011,07,23,01,05,11.80
2011,07,23,01,06,11.80
2011,07,23,01,07,11.80
2011,07,23,01,08,11.80
2011,07,23,01,09,11.70
2011,07,23,01,10,11.70
2011,07,23,01,11,11.70
2011,07,23,01,12,11.70
2011,07,23,01,13,11.60
2011,07,23,01,14,11.60
2011,07,23,01,15,11.60
2011,07,23,01,16,11.60
2011,07,23,01,17,11.60
2011,07,23,01,18,11.60
2011,07,23,01,19,11.60
2011,07,23,01,20,11.60
2011,07,23,01,21,11.60
2011,07,23,01,22,11.60
2011,07,23,01,23,11.60
2011,07,23,01,24,11.60
2011,07,23,01,25,11.60
2011,07,23,01,26,11.50
2011,07,23,01,27,11.50
2011,07,23,01,28,11.50
2011,07,23,01,29,11.50
2011,07,23,01,30,11.50
2011,07,23,01,31,11.40
2011,07,23,01,32,11.40
2011,07,23,01,33,11.40
2011,07,23,01,34,11.30
2011,07,23,01,35,11.30
2011,07,23,01,36,11.30
2011,07,23,01,37,11.30
2011,07,23,01,38,11.30
2011,07,23,01,39,11.30
2011,07,23,01,40,11.30
2011,07,23,01,41,11.30
2011,07,23,01,42,11.30
2011,07,23,01,43,11.30
2011,07,23,01,44,11.30
2011,07,23,01,45,11.30
2011,07,23,01,46,11.30
2011,07,23,01,47,11.20
2011,07,23,01,48,11.20
2011,07,23,01,49,11.20
2011,07,23,01,50,11.20
2011,07,23,01,51,11.20
2011,07,23,01,52,11.20
2011,07,23,01,53,11.10
2011,07,23,01,54,11.10
2011,07,23,01,55,11.10
2011,07,23,01,56,11.10
2011,07,23,01,57,11.10
2011,07,23,01,58,11.10
2011,07,23,01,59,11.10
2011,07,23,02,00,11.10
2011,07,23,02,01,11.10
2011,07,23,02,02,11.10
2011,07,23,02,03,11.10
2011,07,23,02,04,11.10
2011,07,23,02,05,11.00
2011,07,23,02,06,11.00
2011,07,23,02,07,11.00
2011,07,23,02,08,11.00
2011,07,23,02,09,10.90
2011,07,23,02,10,10.90
2011,07,23,02,11,10.90
2011,07,23,02,12,10.90
2011,07,23,02,13,10.90
2011,07,23,02,14,10.90
2011,07,23,02,15,10.80
2011,07,23,02,16,10.80
2011,07,23,02,17,10.90
2011,07,23,02,18,10.90
2011,07,23,02,19,10.90
2011,07,23,02,20,10.90
2011,07,23,02,21,10.90
2011,07,23,02,22,10.90
2011,07,23,02,23,10.90
2011,07,23,02,24,10.90
2011,07,23,02,25,10.90
2011,07,23,02,26,10.90
2011,07,23,02,27,10.90
2011,07,23,02,28,10.90
2011,07,23,02,29,10.90
2011,07,23,02,30,10.90
2011,07,23,02,31,10.90
2011,07,23,02,32,10.90
2011,07,23,02,33,10.90
2011,07,23,02,34,10.90
2011,07,23,02,35,10.90
2011,07,23,02,36,10.90
2011,07,23,02,37,11.00
2011,07,23,02,38,11.00
2011,07,23,02,39,11.00
2011,07,23,02,40,11.00
2011,07,23,02,41,11.00
2011,07,23,02,42,11.00
2011,07,23,02,43,11.00
2011,07,23,02,44,11.00
2011,07,23,02,45,11.00
2011,07,23,02,46,11.00
2011,07,23,02,47,10.90
2011,07,23,02,48,10.90
2011,07,23,02,49,10.90
2011,07,23,02,50,10.90
2011,07,23,02,51,10.90
2011,07,23,02,52,10.90
2011,07,23,02,53,10.90
2011,07,23,02,54,10.90
2011,07,23,02,55,10.90
2011,07,23,02,56,10.90
2011,07,23,02,57,10.90
2011,07,23,02,58,10.90
2011,07,23,02,59,10.90
2011,07,23,03,00,10.90
2011,07,23,03,01,10.90
2011,07,23,03,02,10.90
2011,07,23,03,06,10.90
2011,07,23,03,07,10.90
2011,07,23,03,08,10.90
2011,07,23,03,09,11.00
2011,07,23,03,10,11.00
2011,07,23,03,11,11.00
2011,07,23,03,12,11.00
2011,07,23,03,13,11.00
2011,07,23,03,14,11.00
2011,07,23,03,15,11.00
2011,07,23,03,16,11.00
2011,07,23,03,17,11.00
2011,07,23,03,18,10.90
2011,07,23,03,19,10.90
2011,07,23,03,20,10.90
2011,07,23,03,21,10.90
2011,07,23,03,22,10.90
2011,07,23,03,23,10.90
2011,07,23,03,24,10.90
2011,07,23,03,25,10.90
2011,07,23,03,26,10.90
2011,07,23,03,27,10.90
2011,07,23,03,28,10.90
2011,07,23,03,29,10.90
2011,07,23,03,30,10.80
2011,07,23,03,31,10.80
2011,07,23,03,32,10.80
2011,07,23,03,33,10.80
2011,07,23,03,34,10.80
2011,07,23,03,35,10.80
2011,07,23,03,36,10.80
2011,07,23,03,37,10.80
2011,07,23,03,38,10.80
2011,07,23,03,39,10.80
2011,07,23,03,40,10.80
2011,07,23,03,41,10.80
2011,07,23,03,42,10.80
2011,07,23,03,43,10.80
2011,07,23,03,44,10.80
2011,07,23,03,45,10.80
2011,07,23,03,46,10.80
2011,07,23,03,47,10.80
2011,07,23,03,48,10.80
2011,07,23,03,49,10.80
2011,07,23,03,50,10.80
2011,07,23,03,51,10.80
2011,07,23,03,52,10.70
2011,07,23,03,53,10.70
2011,07,23,03,54,10.70
2011,07,23,03,55,10.70
2011,07,23,03,56,10.70
2011,07,23,03,57,10.70
2011,07,23,03,58,10.60
2011,07,23,03,59,10.60
2011,07,23,04,00,10.60
2011,07,23,04,01,10.60
2011,07,23,04,02,10.60
2011,07,23,04,03,10.50
2011,07,23,04,04,10.50
2011,07,23,04,05,10.50
2011,07,23,04,06,10.50
2011,07,23,04,07,10.40
2011,07,23,04,08,10.50
2011,07,23,04,09,10.50
2011,07,23,04,10,10.50
2011,07,23,04,11,10.60
2011,07,23,04,12,10.60
2011,07,23,04,13,10.60
2011,07,23,04,14,10.60
2011,07,23,04,15,10.60
2011,07,23,04,16,10.70
2011,07,23,04,17,10.70
2011,07,23,04,18,10.80
2011,07,23,04,19,10.80
2011,07,23,04,20,10.80
2011,07,23,04,21,10.80
2011,07,23,04,22,10.90
2011,07,23,04,23,10.90
2011,07,23,04,24,10.90
2011,07,23,04,25,10.90
2011,07,23,04,26,10.90
2011,07,23,04,27,10.90
2011,07,23,04,28,10.80
2011,07,23,04,29,10.80
2011,07,23,04,30,10.80
2011,07,23,04,31,10.80
2011,07,23,04,32,10.80
2011,07,23,04,33,10.80
2011,07,23,04,34,10.70
2011,07,23,04,35,10.70
2011,07,23,04,36,10.70
2011,07,23,04,37,10.60
2011,07,23,04,38,10.60
2011,07,23,04,39,10.60
2011,07,23,04,40,10.60
2011,07,23,04,41,10.60
2011,07,23,04,42,10.60
2011,07,23,04,43,10.60
2011,07,23,04,44,10.60
2011,07,23,04,45,10.60
2011,07,23,04,46,10.60
2011,07,23,04,47,10.60
2011,07,23,04,48,10.60
2011,07,23,04,49,10.60
2011,07,23,04,50,10.60
2011,07,23,04,51,10.60
2011,07,23,04,52,10.60
2011,07,23,04,53,10.60
2011,07,23,04,54,10.60
2011,07,23,04,55,10.60
2011,07,23,04,56,10.60
2011,07,23,04,57,10.60
2011,07,23,04,58,10.60
2011,07,23,04,59,10.60
2011,07,23,05,00,10.60
2011,07,23,05,01,10.60
2011,07,23,05,02,10.60
2011,07,23,05,03,10.70
2011,07,23,05,04,10.70
2011,07,23,05,05,10.70
2011,07,23,05,06,10.60
2011,07,23,05,07,10.60
2011,07,23,05,08,10.50
2011,07,23,05,09,10.50
2011,07,23,05,10,10.50
2011,07,23,05,11,10.50
2011,07,23,05,12,10.50
2011,07,23,05,13,10.50
2011,07,23,05,14,10.50
2011,07,23,05,15,10.50
2011,07,23,05,16,10.60
2011,07,23,05,17,10.60
2011,07,23,05,18,10.60
2011,07,23,05,19,10.60
2011,07,23,05,20,10.60
2011,07,23,05,21,10.60
2011,07,23,05,22,10.60
2011,07,23,05,23,10.60
2011,07,23,05,24,10.60
2011,07,23,05,25,10.60
2011,07,23,05,26,10.60
2011,07,23,05,27,10.70
2011,07,23,05,28,10.70
2011,07,23,05,29,10.70
2011,07,23,05,30,10.70
2011,07,23,05,31,10.60
2011,07,23,05,32,10.60
2011,07,23,05,33,10.60
2011,07,23,05,34,10.60
2011,07,23,05,35,10.60
2011,07,23,05,36,10.60
2011,07,23,05,37,10.60
2011,07,23,05,38,10.60
2011,07,23,05,39,10.60
2011,07,23,05,40,10.60
2011,07,23,05,41,10.60
2011,07,23,05,42,10.60
2011,07,23,05,43,10.50
2011,07,23,05,44,10.50
2011,07,23,05,45,10.50
2011,07,23,05,46,10.50
2011,07,23,05,47,10.50
2011,07,23,05,48,10.60
2011,07,23,05,49,10.60
2011,07,23,05,50,10.60
2011,07,23,05,51,10.50
2011,07,23,05,52,10.50
2011,07,23,05,53,10.50
2011,07,23,05,54,10.50
2011,07,23,05,55,10.50
2011,07,23,05,56,10.50
2011,07,23,05,57,10.50
2011,07,23,05,58,10.50
2011,07,23,05,59,10.50
2011,07,23,06,00,10.60
2011,07,23,06,01,10.60
2011,07,23,06,02,10.60
2011,07,23,06,03,10.60
2011,07,23,06,04,10.60
2011,07,23,06,05,10.60
2011,07,23,06,06,10.60
2011,07,23,06,07,10.60
2011,07,23,06,08,10.60
2011,07,23,06,09,10.60
2011,07,23,06,10,10.60
2011,07,23,06,11,10.60
2011,07,23,06,12,10.50
2011,07,23,06,13,10.50
2011,07,23,06,14,10.50
2011,07,23,06,15,10.50
2011,07,23,06,16,10.50
2011,07,23,06,17,10.50
2011,07,23,06,18,10.50
2011,07,23,06,19,10.50
2011,07,23,06,20,10.40
2011,07,23,06,21,10.40
2011,07,23,06,22,10.40
2011,07,23,06,23,10.40
2011,07,23,06,24,10.40
2011,07,23,06,25,10.40
2011,07,23,06,26,10.40
2011,07,23,06,27,10.40
2011,07,23,06,28,10.40
2011,07,23,06,29,10.40
2011,07,23,06,30,10.30
2011,07,23,06,31,10.30
2011,07,23,06,32,10.30
2011,07,23,06,33,10.30
2011,07,23,06,34,10.30
2011,07,23,06,35,10.30
2011,07,23,06,36,10.40
2011,07,23,06,37,10.40
2011,07,23,06,38,10.40
2011,07,23,06,39,10.40
2011,07,23,06,40,10.40
2011,07,23,06,41,10.40
2011,07,23,06,42,10.30
2011,07,23,06,43,10.30
2011,07,23,06,44,10.30
2011,07,23,06,45,10.30
2011,07,23,06,46,10.40
2011,07,23,06,47,10.40
2011,07,23,06,48,10.40
2011,07,23,06,49,10.40
2011,07,23,06,50,10.50
2011,07,23,06,51,10.50
2011,07,23,06,52,10.50
2011,07,23,06,53,10.60
2011,07,23,06,54,10.60
2011,07,23,06,55,10.60
2011,07,23,06,56,10.60
2011,07,23,06,57,10.70
2011,07,23,06,58,10.70
2011,07,23,06,59,10.70
2011,07,23,07,00,10.70
2011,07,23,07,01,10.80
2011,07,23,07,02,10.80
2011,07,23,07,03,10.80
2011,07,23,07,04,10.90
2011,07,23,07,05,10.90
2011,07,23,07,06,11.10
2011,07,23,07,07,11.20
2011,07,23,07,08,11.30
2011,07,23,07,09,11.40
2011,07,23,07,10,11.50
2011,07,23,07,11,11.60
2011,07,23,07,12,11.70
2011,07,23,07,13,11.80
2011,07,23,07,14,11.90
2011,07,23,07,15,11.90
2011,07,23,07,16,12.00
2011,07,23,07,17,12.10
2011,07,23,07,18,12.10
2011,07,23,07,19,12.20
2011,07,23,07,20,12.20
2011,07,23,07,21,12.30
2011,07,23,07,22,12.40
2011,07,23,07,23,12.40
2011,07,23,07,24,12.50
2011,07,23,07,25,12.50
2011,07,23,07,26,12.50
2011,07,23,07,27,12.60
2011,07,23,07,28,12.60
2011,07,23,07,29,12.60
2011,07,23,07,30,12.60
2011,07,23,07,31,12.60
2011,07,23,07,32,12.70
2011,07,23,07,33,12.70
2011,07,23,07,34,12.80
2011,07,23,07,35,12.80
2011,07,23,07,36,12.80
2011,07,23,07,37,12.90
2011,07,23,07,38,12.90
2011,07,23,07,39,13.00
2011,07,23,07,40,13.00
2011,07,23,07,41,13.00
2011,07,23,07,42,13.00
2011,07,23,07,43,12.90
2011,07,23,07,44,12.90
2011,07,23,07,45,12.90
2011,07,23,07,46,12.80
2011,07,23,07,47,12.80
2011,07,23,07,48,12.80
2011,07,23,07,49,12.80
2011,07,23,07,50,12.80
2011,07,23,07,51,12.80
2011,07,23,07,52,12.80
2011,07,23,07,53,12.80
2011,07,23,07,54,12.80
2011,07,23,07,55,12.90
2011,07,23,07,56,12.90
2011,07,23,07,57,12.90
2011,07,23,07,58,13.00
2011,07,23,07,59,13.00
2011,07,23,08,00,13.10
2011,07,23,08,01,13.10
2011,07,23,08,02,13.10
2011,07,23,08,03,13.20
2011,07,23,08,04,13.20
2011,07,23,08,05,13.20
2011,07,23,08,06,13.30
2011,07,23,08,07,13.30
2011,07,23,08,08,13.30
2011,07,23,08,09,13.40
2011,07,23,08,10,13.40
2011,07,23,08,11,13.50
2011,07,23,08,12,13.60
2011,07,23,08,13,13.60
2011,07,23,08,14,13.70
2011,07,23,08,15,13.70
2011,07,23,08,16,13.80
2011,07,23,08,17,13.80
2011,07,23,08,18,13.90
2011,07,23,08,19,14.00
2011,07,23,08,20,14.00
2011,07,23,08,21,14.10
2011,07,23,08,22,14.20
2011,07,23,08,23,14.30
2011,07,23,08,24,14.30
2011,07,23,08,25,14.30
2011,07,23,08,26,14.30
2011,07,23,08,27,14.30
2011,07,23,08,28,14.40
2011,07,23,08,29,14.40
2011,07,23,08,30,14.50
2011,07,23,08,31,14.50
2011,07,23,08,32,14.60
2011,07,23,08,33,14.60
2011,07,23,08,34,14.60
2011,07,23,08,35,14.70
2011,07,23,08,36,14.70
2011,07,23,08,37,14.60
2011,07,23,08,38,14.60
2011,07,23,08,39,14.60
2011,07,23,08,40,14.60
2011,07,23,08,41,14.60
2011,07,23,08,42,14.60
2011,07,23,08,43,14.60
2011,07,23,08,44,14.70
2011,07,23,08,45,14.80
2011,07,23,08,46,14.80
2011,07,23,08,47,14.90
2011,07,23,08,48,14.90
2011,07,23,08,49,14.90
2011,07,23,08,50,14.90
2011,07,23,08,51,15.00
2011,07,23,08,52,15.00
2011,07,23,08,53,15.00
2011,07,23,08,54,15.00
2011,07,23,08,55,14.90
2011,07,23,08,56,14.90
2011,07,23,08,57,14.90
2011,07,23,08,58,14.80
2011,07,23,08,59,14.80
2011,07,23,09,00,14.80
2011,07,23,09,01,14.70
2011,07,23,09,02,14.70
2011,07,23,09,03,14.70
2011,07,23,09,04,14.70
2011,07,23,09,05,14.70
2011,07,23,09,06,14.70
2011,07,23,09,07,14.70
2011,07,23,09,08,14.70
2011,07,23,09,09,14.70
2011,07,23,09,10,14.70
2011,07,23,09,11,14.80
2011,07,23,09,12,14.80
2011,07,23,09,13,14.80
2011,07,23,09,14,14.80
2011,07,23,09,15,14.80
2011,07,23,09,16,14.80
2011,07,23,09,17,14.80
2011,07,23,09,18,14.90
2011,07,23,09,19,15.00
2011,07,23,09,20,15.00
2011,07,23,09,21,15.10
2011,07,23,09,22,15.20
2011,07,23,09,23,15.20
2011,07,23,09,24,15.20
2011,07,23,09,25,15.10
2011,07,23,09,26,15.10
2011,07,23,09,27,15.10
2011,07,23,09,28,15.10
2011,07,23,09,29,15.10
2011,07,23,09,30,15.10
2011,07,23,09,31,15.10
2011,07,23,09,32,15.10
2011,07,23,09,33,15.10
2011,07,23,09,34,15.00
2011,07,23,09,35,14.90
2011,07,23,09,36,14.90
2011,07,23,09,37,14.90
2011,07,23,09,38,14.90
2011,07,23,09,39,14.90
2011,07,23,09,40,14.90
2011,07,23,09,41,14.90
2011,07,23,09,42,14.90
2011,07,23,09,43,14.90
2011,07,23,09,44,15.00
2011,07,23,09,45,15.00
2011,07,23,09,46,15.10
2011,07,23,09,47,15.10
2011,07,23,09,48,15.20
2011,07,23,09,49,15.30
2011,07,23,09,50,15.30
2011,07,23,09,51,15.30
2011,07,23,09,52,15.30
2011,07,23,09,53,15.40
2011,07,23,09,54,15.40
2011,07,23,09,55,15.40
2011,07,23,09,56,15.40
2011,07,23,09,57,15.40
2011,07,23,09,58,15.50
2011,07,23,09,59,15.50
2011,07,23,10,00,15.50
2011,07,23,10,01,15.60
2011,07,23,10,02,15.60
2011,07,23,10,03,15.70
2011,07,23,10,04,15.70
2011,07,23,10,05,15.80
2011,07,23,10,06,15.80
2011,07,23,10,07,15.80
2011,07,23,10,08,15.80
2011,07,23,10,09,15.80
2011,07,23,10,10,15.90
2011,07,23,10,11,15.90
2011,07,23,10,12,15.90
2011,07,23,10,13,15.90
2011,07,23,10,14,15.90
2011,07,23,10,15,16.00
2011,07,23,10,16,16.00
2011,07,23,10,17,16.00
2011,07,23,10,18,16.00
2011,07,23,10,19,16.00
2011,07,23,10,20,15.90
2011,07,23,10,21,15.90
2011,07,23,10,22,15.90
2011,07,23,10,23,15.90
2011,07,23,10,24,15.90
2011,07,23,10,25,15.80
2011,07,23,10,26,15.80
2011,07,23,10,27,15.80
2011,07,23,10,28,15.80
2011,07,23,10,29,15.80
2011,07,23,10,30,15.80
2011,07,23,10,31,15.80
2011,07,23,10,32,15.80
2011,07,23,10,33,15.80
2011,07,23,10,34,15.80
2011,07,23,10,35,15.80
2011,07,23,10,36,15.80
2011,07,23,10,37,15.80
2011,07,23,10,38,15.80
2011,07,23,10,39,15.70
2011,07,23,10,40,15.70
2011,07,23,10,41,15.70
2011,07,23,10,42,15.60
2011,07,23,10,43,15.60
2011,07,23,10,44,15.50
2011,07,23,10,45,15.50
2011,07,23,10,46,15.50
2011,07,23,10,47,15.40
2011,07,23,10,48,15.40
2011,07,23,10,49,15.40
2011,07,23,10,50,15.40
2011,07,23,10,51,15.40
2011,07,23,10,52,15.40
2011,07,23,10,53,15.40
2011,07,23,10,54,15.40
2011,07,23,10,55,15.40
2011,07,23,10,56,15.50
2011,07,23,10,57,15.50
2011,07,23,10,58,15.50
2011,07,23,10,59,15.60
2011,07,23,11,00,15.60
2011,07,23,11,01,15.70
2011,07,23,11,02,15.70
2011,07,23,11,03,15.70
2011,07,23,11,04,15.80
2011,07,23,11,05,15.90
2011,07,23,11,06,15.90
2011,07,23,11,07,15.90
2011,07,23,11,08,16.00
2011,07,23,11,09,16.00
2011,07,23,11,10,15.90
2011,07,23,11,11,15.90
2011,07,23,11,12,15.90
2011,07,23,11,13,15.90
2011,07,23,11,14,15.90
2011,07,23,11,15,15.80
2011,07,23,11,16,15.70
2011,07,23,11,17,15.70
2011,07,23,11,18,15.60
2011,07,23,11,19,15.60
2011,07,23,11,20,15.60
2011,07,23,11,21,15.50
2011,07,23,11,22,15.40
2011,07,23,11,23,15.30
2011,07,23,11,24,15.30
2011,07,23,11,25,15.30
2011,07,23,11,26,15.20
2011,07,23,11,27,15.20
2011,07,23,11,28,15.20
2011,07,23,11,29,15.20
2011,07,23,11,30,15.20
2011,07,23,11,31,15.20
2011,07,23,11,32,15.30
2011,07,23,11,33,15.30
2011,07,23,11,34,15.30
2011,07,23,11,35,15.30
2011,07,23,11,36,15.30
2011,07,23,11,37,15.40
2011,07,23,11,38,15.50
2011,07,23,11,39,15.50
2011,07,23,11,40,15.50
2011,07,23,11,41,15.60
2011,07,23,11,42,15.70
2011,07,23,11,43,15.70
2011,07,23,11,44,15.70
2011,07,23,11,45,15.70
2011,07,23,11,46,15.80
2011,07,23,11,47,15.80
2011,07,23,11,48,15.80
2011,07,23,11,49,15.90
2011,07,23,11,50,15.90
2011,07,23,11,51,15.90
2011,07,23,11,52,15.90
2011,07,23,11,53,15.90
2011,07,23,11,54,16.00
2011,07,23,11,55,16.00
2011,07,23,11,56,16.10
2011,07,23,11,57,16.20
2011,07,23,11,58,16.30
2011,07,23,11,59,16.30
2011,07,23,12,00,16.40
2011,07,23,12,01,16.40
2011,07,23,12,02,16.30
2011,07,23,12,03,16.30
2011,07,23,12,04,16.10
2011,07,23,12,05,16.00
2011,07,23,12,06,16.00
2011,07,23,12,07,16.00
2011,07,23,12,08,16.10
2011,07,23,12,09,16.10
2011,07,23,12,10,16.10
2011,07,23,12,11,16.10
2011,07,23,12,12,16.20
2011,07,23,12,13,16.20
2011,07,23,12,14,16.20
2011,07,23,12,15,16.30
2011,07,23,12,16,16.30
2011,07,23,12,17,16.20
2011,07,23,12,18,16.10
2011,07,23,12,19,16.00
2011,07,23,12,20,15.90
2011,07,23,12,21,15.80
2011,07,23,12,22,15.80
2011,07,23,12,23,15.80
2011,07,23,12,24,15.80
2011,07,23,12,25,15.80
2011,07,23,12,26,15.70
2011,07,23,12,27,15.70
2011,07,23,12,28,15.70
2011,07,23,12,29,15.80
2011,07,23,12,30,15.80
2011,07,23,12,31,15.80
2011,07,23,12,32,15.80
2011,07,23,12,33,15.80
2011,07,23,12,34,15.80
2011,07,23,12,35,15.80
2011,07,23,12,36,15.80
2011,07,23,12,37,15.80
2011,07,23,12,38,15.70
2011,07,23,12,39,15.70
2011,07,23,12,40,15.60
2011,07,23,12,41,15.60
2011,07,23,12,42,15.60
2011,07,23,12,43,15.60
2011,07,23,12,44,15.60
2011,07,23,12,45,15.50
2011,07,23,12,46,15.50
2011,07,23,12,47,15.50
2011,07,23,12,48,15.40
2011,07,23,12,49,15.40
2011,07,23,12,50,15.40
2011,07,23,12,51,15.40
2011,07,23,12,52,15.40
2011,07,23,12,53,15.30
2011,07,23,12,54,15.30
2011,07,23,12,55,15.40
2011,07,23,12,56,15.40
2011,07,23,12,57,15.40
2011,07,23,12,58,15.40
2011,07,23,12,59,15.40
2011,07,23,13,00,15.40
2011,07,23,13,01,15.30
2011,07,23,13,02,15.30
2011,07,23,13,03,15.30
2011,07,23,13,04,15.30
2011,07,23,13,05,15.30
2011,07,23,13,06,15.30
2011,07,23,13,07,15.30
2011,07,23,13,08,15.40
2011,07,23,13,09,15.40
2011,07,23,13,10,15.40
2011,07,23,13,11,15.50
2011,07,23,13,12,15.60
2011,07,23,13,13,15.60
2011,07,23,13,14,15.60
2011,07,23,13,15,15.70
2011,07,23,13,16,15.70
2011,07,23,13,17,15.70
2011,07,23,13,18,15.70
2011,07,23,13,19,15.80
2011,07,23,13,20,15.80
2011,07,23,13,21,15.80
2011,07,23,13,22,15.90
2011,07,23,13,23,16.00
2011,07,23,13,24,16.10
2011,07,23,13,25,16.20
2011,07,23,13,26,16.30
2011,07,23,13,27,16.30
2011,07,23,13,28,16.40
2011,07,23,13,29,16.30
2011,07,23,13,30,16.30
2011,07,23,13,31,16.20
2011,07,23,13,32,16.20
2011,07,23,13,33,16.20
2011,07,23,13,34,16.30
2011,07,23,13,35,16.30
2011,07,23,13,36,16.30
2011,07,23,13,37,16.40
2011,07,23,13,38,16.40
2011,07,23,13,39,16.50
2011,07,23,13,40,16.60
2011,07,23,13,41,16.60
2011,07,23,13,42,16.60
2011,07,23,13,43,16.70
2011,07,23,13,44,16.70
2011,07,23,13,45,16.70
2011,07,23,13,46,16.60
2011,07,23,13,47,16.60
2011,07,23,13,48,16.70
2011,07,23,13,49,16.70
2011,07,23,13,50,16.70
2011,07,23,13,51,16.80
2011,07,23,13,52,16.80
2011,07,23,13,53,16.80
2011,07,23,13,54,16.80
2011,07,23,13,55,16.80
2011,07,23,13,56,16.70
2011,07,23,13,57,16.70
2011,07,23,13,58,16.70
2011,07,23,13,59,16.80
2011,07,23,14,00,16.80
2011,07,23,14,01,16.80
2011,07,23,14,02,16.80
2011,07,23,14,03,16.80
2011,07,23,14,04,16.90
2011,07,23,14,05,16.80
2011,07,23,14,06,16.70
2011,07,23,14,07,16.70
2011,07,23,14,08,16.80
2011,07,23,14,09,16.80
2011,07,23,14,10,16.90
2011,07,23,14,11,16.90
2011,07,23,14,12,16.90
2011,07,23,14,13,17.00
2011,07,23,14,14,17.00
2011,07,23,14,15,17.00
2011,07,23,14,16,17.10
2011,07,23,14,17,17.20
2011,07,23,14,18,17.30
2011,07,23,14,19,17.30
2011,07,23,14,20,17.40
2011,07,23,14,21,17.50
2011,07,23,14,22,17.40
2011,07,23,14,23,17.40
2011,07,23,14,24,17.40
2011,07,23,14,25,17.30
2011,07,23,14,26,17.30
2011,07,23,14,27,17.30
2011,07,23,14,28,17.30
2011,07,23,14,29,17.30
2011,07,23,14,30,17.30
2011,07,23,14,31,17.30
2011,07,23,14,32,17.30
2011,07,23,14,33,17.20
2011,07,23,14,34,17.20
2011,07,23,14,35,17.10
2011,07,23,14,36,17.10
2011,07,23,14,37,17.00
2011,07,23,14,38,17.00
2011,07,23,14,39,17.00
2011,07,23,14,40,17.10
2011,07,23,14,41,17.00
2011,07,23,14,42,17.00
2011,07,23,14,43,17.00
2011,07,23,14,44,17.00
2011,07,23,14,45,17.00
2011,07,23,14,46,17.00
2011,07,23,14,47,17.00
2011,07,23,14,48,17.10
2011,07,23,14,49,17.10
2011,07,23,14,50,17.00
2011,07,23,14,51,17.10
2011,07,23,14,52,17.10
2011,07,23,14,53,17.20
2011,07,23,14,54,17.30
2011,07,23,14,55,17.30
2011,07,23,14,56,17.30
2011,07,23,14,57,17.20
2011,07,23,14,58,17.20
2011,07,23,14,59,17.20
2011,07,23,15,00,17.30
2011,07,23,15,01,17.30
2011,07,23,15,02,17.20
2011,07,23,15,03,17.20
2011,07,23,15,04,17.20
2011,07,23,15,05,17.20
2011,07,23,15,06,17.20
2011,07,23,15,07,17.30
2011,07,23,15,08,17.40
2011,07,23,15,09,17.40
2011,07,23,15,10,17.40
2011,07,23,15,11,17.50
2011,07,23,15,12,17.60
2011,07,23,15,13,17.70
2011,07,23,15,14,17.80
2011,07,23,15,15,17.70
2011,07,23,15,16,17.70
2011,07,23,15,17,17.60
2011,07,23,15,18,17.50
2011,07,23,15,19,17.60
2011,07,23,15,20,17.70
2011,07,23,15,21,17.80
2011,07,23,15,22,17.80
2011,07,23,15,23,17.80
2011,07,23,15,24,17.80
2011,07,23,15,25,17.70
2011,07,23,15,26,17.70
2011,07,23,15,27,17.60
2011,07,23,15,28,17.60
2011,07,23,15,29,17.60
2011,07,23,15,30,17.70
2011,07,23,15,31,17.60
2011,07,23,15,32,17.50
2011,07,23,15,33,17.40
2011,07,23,15,34,17.40
2011,07,23,15,35,17.40
2011,07,23,15,36,17.40
2011,07,23,15,37,17.40
2011,07,23,15,38,17.30
2011,07,23,15,39,17.20
2011,07,23,15,40,17.10
2011,07,23,15,41,17.10
2011,07,23,15,42,17.00
2011,07,23,15,43,16.90
2011,07,23,15,44,16.90
2011,07,23,15,45,16.80
2011,07,23,15,46,16.70
2011,07,23,15,47,16.60
2011,07,23,15,48,16.60
2011,07,23,15,49,16.60
2011,07,23,15,50,16.70
2011,07,23,15,51,16.70
2011,07,23,15,52,16.70
2011,07,23,15,53,16.70
2011,07,23,15,54,16.70
2011,07,23,15,55,16.70
2011,07,23,15,56,16.80
2011,07,23,15,57,16.90
2011,07,23,15,58,17.00
2011,07,23,15,59,17.10
2011,07,23,16,00,17.20
2011,07,23,16,01,17.30
2011,07,23,16,02,17.30
2011,07,23,16,03,17.30
2011,07,23,16,04,17.30
2011,07,23,16,05,17.20
2011,07,23,16,06,17.20
2011,07,23,16,07,17.10
2011,07,23,16,08,17.10
2011,07,23,16,09,17.10
2011,07,23,16,10,17.00
2011,07,23,16,11,17.10
2011,07,23,16,12,17.00
2011,07,23,16,13,17.00
2011,07,23,16,14,16.90
2011,07,23,16,15,16.90
2011,07,23,16,16,16.90
2011,07,23,16,17,16.90
2011,07,23,16,18,16.90
2011,07,23,16,19,16.80
2011,07,23,16,20,16.80
2011,07,23,16,21,16.80
2011,07,23,16,22,16.70
2011,07,23,16,23,16.70
2011,07,23,16,24,16.60
2011,07,23,16,25,16.60
2011,07,23,16,26,16.50
2011,07,23,16,27,16.50
2011,07,23,16,28,16.40
2011,07,23,16,29,16.30
2011,07,23,16,30,16.20
2011,07,23,16,31,16.10
2011,07,23,16,32,16.10
2011,07,23,16,33,16.00
2011,07,23,16,34,15.90
2011,07,23,16,35,15.80
2011,07,23,16,36,15.80
2011,07,23,16,37,15.80
2011,07,23,16,38,15.70
2011,07,23,16,39,15.70
2011,07,23,16,40,15.70
2011,07,23,16,41,15.80
2011,07,23,16,42,15.70
2011,07,23,16,43,15.70
2011,07,23,16,44,15.70
2011,07,23,16,45,15.70
2011,07,23,16,46,15.70
2011,07,23,16,47,15.70
2011,07,23,16,48,15.70
2011,07,23,16,49,15.70
2011,07,23,16,50,15.70
2011,07,23,16,51,15.80
2011,07,23,16,52,15.80
2011,07,23,16,53,15.90
2011,07,23,16,54,16.00
2011,07,23,16,55,16.00
2011,07,23,16,56,16.10
2011,07,23,16,57,16.20
2011,07,23,16,58,16.20
2011,07,23,16,59,16.30
2011,07,23,17,00,16.30
2011,07,23,17,01,16.40
2011,07,23,17,02,16.50
2011,07,23,17,03,16.60
2011,07,23,17,04,16.70
2011,07,23,17,05,16.80
2011,07,23,17,06,16.90
2011,07,23,17,07,16.90
2011,07,23,17,08,16.90
2011,07,23,17,09,16.90
2011,07,23,17,10,16.90
2011,07,23,17,11,16.90
2011,07,23,17,12,16.90
2011,07,23,17,13,17.00
2011,07,23,17,14,17.00
2011,07,23,17,15,17.10
2011,07,23,17,16,17.10
2011,07,23,17,17,17.10
2011,07,23,17,18,17.20
2011,07,23,17,19,17.30
2011,07,23,17,20,17.30
2011,07,23,17,21,17.40
2011,07,23,17,22,17.40